Weather History for KY63 - December, 2012

Change the Weather History Date:

Saturday, December 15, 2012

  Actual Average (KFFM) Record (KFFM)
Temperature  
Mean Temperature 25 °F -  
Max Temperature 33 °F 23 °F 46 °F (1959)
Min Temperature 15 °F 7 °F -22 °F (1989)
Degree Days  
Heating Degree Days 40    
Moisture  
Dew Point 28 °F    
Average Humidity 94    
Maximum Humidity 100    
Minimum Humidity 80    
Precipitation  
Precipitation 0.17 in - - ()
Sea Level Pressure  
Sea Level Pressure 29.61 in    
Wind  
Wind Speed 10 mph (NNE)    
Max Wind Speed 22 mph    
Max Gust Speed 25 mph    
Visibility 5 miles    
Events Rain , Snow    
Averages and records for this station are not official NWS values.
T = Trace of Precipitation, MM = Missing Value Source: NWS Daily Summary

Daily Weather History Graph

Daily Weather History Graph

Search for Another Location

Airport or City:

Trip Planner

Search our weather history database for the weather conditions in past years. The results will help you decide how hot, cold, wet, or windy it might be!

Date:

Astronomy

Dec. 15, 2012 Rise Set
Actual Time 7:59 AM CST 4:39 PM CST
Civil Twilight 7:24 AM CST 5:13 PM CST
Nautical Twilight 6:46 AM CST 5:51 PM CST
Astronomical Twilight 6:10 AM CST 6:28 PM CST
Moon 9:47 AM CST (12/15) 7:51 PM CST (12/15)
Length of Visible Light 9h 49m
Length of Day
8h 39m
Waxing Crescent, 8% of the Moon is Illuminated
Dec 15
Waxing Crescent
Dec 19
First Quarter
Dec 28
Full
Jan 4
Last Quarter
Jan 11
New

Hourly Weather History & Observations

Time (CST) Temp. Windchill Dew Point Humidity Pressure Visibility Wind Dir Wind Speed Gust Speed Precip Events Conditions
12:15 AM 30.2 °F 20.8 °F 26.6 °F 86% 29.69 in 10.0 mi ESE 11.5 mph - N/A   Clear
12:35 AM 32.0 °F 22.5 °F 26.6 °F 80% 29.68 in 10.0 mi ESE 12.7 mph - N/A   Clear
12:55 AM 32.0 °F 23.6 °F 26.6 °F 80% 29.67 in 10.0 mi ESE 10.4 mph - N/A   Clear
1:15 AM 32.0 °F 22.5 °F 26.6 °F 80% 29.66 in 10.0 mi ESE 12.7 mph 17.3 mph N/A   Clear
1:35 AM 32.0 °F 23.0 °F 26.6 °F 80% 29.66 in 10.0 mi ESE 11.5 mph 17.3 mph N/A   Clear
1:55 AM 32.0 °F 23.0 °F 26.6 °F 80% 29.66 in 10.0 mi ESE 11.5 mph - N/A   Clear
2:15 AM 32.0 °F 23.6 °F 28.4 °F 87% 29.65 in 10.0 mi ESE 10.4 mph - N/A   Clear
2:35 AM 32.0 °F 24.2 °F 28.4 °F 87% 29.65 in 10.0 mi ESE 9.2 mph - N/A   Scattered Clouds
2:55 AM 32.0 °F 23.6 °F 28.4 °F 87% 29.64 in 10.0 mi ESE 10.4 mph - N/A   Scattered Clouds
3:15 AM 32.0 °F 24.2 °F 28.4 °F 87% 29.64 in 10.0 mi ESE 9.2 mph - N/A   Mostly Cloudy
3:35 AM 32.0 °F 24.2 °F 28.4 °F 87% 29.63 in 10.0 mi ESE 9.2 mph - N/A   Overcast
3:55 AM 32.0 °F 24.2 °F 28.4 °F 87% 29.62 in 10.0 mi ESE 9.2 mph - N/A   Overcast
4:15 AM 32.0 °F 24.2 °F 30.2 °F 93% 29.62 in 10.0 mi East 9.2 mph - N/A   Overcast
4:35 AM 32.0 °F 24.2 °F 30.2 °F 93% 29.62 in 10.0 mi ESE 9.2 mph - N/A   Overcast
4:55 AM 32.0 °F 23.6 °F 30.2 °F 93% 29.62 in 10.0 mi ESE 10.4 mph - N/A   Overcast
5:15 AM 33.8 °F 27.0 °F 30.2 °F 87% 29.63 in 10.0 mi ESE 8.1 mph - N/A   Overcast
5:35 AM 33.8 °F 27.0 °F 30.2 °F 87% 29.62 in 10.0 mi ESE 8.1 mph - N/A   Overcast
5:55 AM 33.8 °F 28.6 °F 30.2 °F 87% 29.62 in 10.0 mi East 5.8 mph - N/A   Light Drizzle
6:15 AM 33.8 °F 29.6 °F 32.0 °F 93% 29.61 in 7.0 mi East 4.6 mph - N/A Rain Light Rain
6:35 AM 32.0 °F 26.4 °F 32.0 °F 100% 29.61 in 5.0 mi East 5.8 mph - N/A Rain Light Rain
6:55 AM 32.0 °F 25.6 °F 32.0 °F 100% 29.60 in 5.0 mi East 6.9 mph - N/A Rain Rain
7:15 AM 32.0 °F 25.6 °F 32.0 °F 100% 29.61 in 4.0 mi East 6.9 mph - 0.01 in Rain Rain
7:35 AM 32.0 °F 26.4 °F 32.0 °F 100% 29.60 in 3.0 mi ENE 5.8 mph - 0.03 in Rain Light Rain
7:55 AM 32.0 °F 26.4 °F 32.0 °F 100% 29.60 in 3.0 mi ENE 5.8 mph - 0.04 in Rain Rain
8:15 AM 32.0 °F 27.5 °F 32.0 °F 100% 29.60 in 2.5 mi NE 4.6 mph - 0.01 in Rain Light Rain
8:35 AM 32.0 °F 26.4 °F 32.0 °F 100% 29.60 in 3.0 mi ENE 5.8 mph - 0.01 in Rain Light Rain
8:55 AM 32.0 °F 24.8 °F 32.0 °F 100% 29.59 in 2.5 mi NE 8.1 mph - 0.03 in Rain Light Rain
9:15 AM 32.0 °F 25.6 °F 32.0 °F 100% 29.59 in 1.5 mi ENE 6.9 mph - N/A Rain Light Rain
9:35 AM 32.0 °F 25.6 °F 32.0 °F 100% 29.59 in 1.8 mi ENE 6.9 mph - 0.01 in   Drizzle
9:55 AM 32.0 °F 26.4 °F 32.0 °F 100% 29.59 in 1.8 mi NE 5.8 mph - 0.01 in   Drizzle
10:15 AM 32.0 °F 25.6 °F 32.0 °F 100% 29.58 in 1.8 mi NE 6.9 mph - N/A Rain Light Rain
10:35 AM 32.0 °F 25.6 °F 32.0 °F 100% 29.59 in 1.8 mi NE 6.9 mph - 0.01 in Rain Light Rain
10:55 AM 32.0 °F 26.4 °F 32.0 °F 100% 29.59 in 1.5 mi NE 5.8 mph - 0.02 in Rain Rain
11:15 AM 32.0 °F 27.5 °F 32.0 °F 100% 29.59 in 0.8 mi NE 4.6 mph - 0.02 in Snow Light Snow
11:35 AM 32.0 °F 27.5 °F 32.0 °F 100% 29.59 in 0.8 mi NE 4.6 mph - 0.03 in Snow Light Snow
12:15 PM 32.0 °F 27.5 °F 32.0 °F 100% 29.58 in 0.5 mi North 4.6 mph - 0.01 in Snow Light Snow
12:35 PM 32.0 °F 27.5 °F 32.0 °F 100% 29.57 in 0.5 mi North 4.6 mph - 0.02 in Snow Light Snow
12:55 PM 32.0 °F 25.6 °F 32.0 °F 100% 29.57 in 0.8 mi North 6.9 mph - 0.02 in Snow Light Snow
1:15 PM 32.0 °F 26.4 °F 32.0 °F 100% 29.56 in 0.5 mi North 5.8 mph - 0.01 in Snow Light Snow
1:35 PM 32.0 °F 24.8 °F 32.0 °F 100% 29.55 in 0.5 mi North 8.1 mph - 0.01 in Snow Light Snow
2:15 PM 32.0 °F 24.8 °F 32.0 °F 100% 29.54 in 0.5 mi North 8.1 mph - N/A Snow Light Snow
2:35 PM 32.0 °F 24.8 °F 32.0 °F 100% 29.54 in 0.5 mi NNW 8.1 mph - 0.01 in Snow Light Snow
2:55 PM 32.0 °F 24.8 °F 32.0 °F 100% 29.54 in 0.8 mi NNW 8.1 mph - 0.01 in Snow Light Snow
3:15 PM 32.0 °F 24.2 °F 32.0 °F 100% 29.54 in 0.8 mi NNW 9.2 mph - N/A Snow Light Snow
3:35 PM 32.0 °F 23.0 °F 32.0 °F 100% 29.54 in 0.8 mi NNW 11.5 mph - N/A Snow Light Snow
3:55 PM 32.0 °F 24.2 °F 32.0 °F 100% 29.55 in 1.0 mi NNW 9.2 mph - N/A Snow Light Snow
4:15 PM 32.0 °F 21.6 °F 30.2 °F 93% 29.56 in 1.2 mi NW 15.0 mph 18.4 mph N/A Snow Light Snow
4:35 PM 30.2 °F 19.8 °F 30.2 °F 100% 29.56 in 1.0 mi NW 13.8 mph - N/A Snow Light Snow
4:55 PM 30.2 °F 20.8 °F 28.4 °F 93% 29.57 in 1.5 mi NNW 11.5 mph - N/A Snow Light Snow
5:15 PM 30.2 °F 21.3 °F 28.4 °F 93% 29.57 in 1.2 mi NNW 10.4 mph 17.3 mph N/A Snow Light Snow
5:35 PM 30.2 °F 20.2 °F 28.4 °F 93% 29.58 in 2.5 mi NNW 12.7 mph - N/A   Overcast
6:15 PM 28.4 °F 18.5 °F 28.4 °F 100% 29.59 in 5.0 mi NW 11.5 mph - N/A   Overcast
6:35 PM 28.4 °F 18.0 °F 26.6 °F 93% 29.60 in 4.0 mi NW 12.7 mph - N/A   Overcast
6:55 PM 28.4 °F 17.0 °F 26.6 °F 93% 29.60 in 4.0 mi NNW 15.0 mph - N/A   Overcast
7:15 PM 26.6 °F 14.7 °F 26.6 °F 100% 29.61 in 4.0 mi NNW 15.0 mph - N/A   Overcast
7:35 PM 26.6 °F 14.7 °F 24.8 °F 93% 29.62 in 4.0 mi NW 15.0 mph - N/A   Overcast
7:55 PM 26.6 °F 13.8 °F 24.8 °F 93% 29.62 in 4.0 mi NW 17.3 mph - N/A   Overcast
8:15 PM 24.8 °F 11.1 °F 23.0 °F 93% 29.63 in 4.0 mi NW 18.4 mph 23.0 mph N/A   Overcast
8:35 PM 24.8 °F 11.5 °F 23.0 °F 93% 29.63 in 4.0 mi NW 17.3 mph - N/A   Overcast
8:55 PM 23.0 °F 10.1 °F 23.0 °F 100% 29.63 in 4.0 mi NNW 15.0 mph 23.0 mph N/A   Overcast
9:15 PM 23.0 °F 10.6 °F 21.2 °F 93% 29.63 in 5.0 mi NNW 13.8 mph - N/A   Overcast
9:35 PM 23.0 °F 10.1 °F 21.2 °F 93% 29.64 in 7.0 mi NNW 15.0 mph 20.7 mph N/A   Overcast
9:55 PM 21.2 °F 6.4 °F 19.4 °F 93% 29.65 in 10.0 mi NW 18.4 mph - N/A   Overcast
10:15 PM 19.4 °F 4.1 °F 17.6 °F 93% 29.65 in 10.0 mi NNW 18.4 mph 25.3 mph N/A   Overcast
10:35 PM 17.6 °F 2.2 °F 14.0 °F 86% 29.65 in 10.0 mi NNW 17.3 mph 23.0 mph N/A   Overcast
10:55 PM 17.6 °F 3.2 °F 14.0 °F 86% 29.65 in 10.0 mi NNW 15.0 mph 21.9 mph N/A   Scattered Clouds
11:15 PM 17.6 °F 1.7 °F 14.0 °F 86% 29.65 in 10.0 mi NNW 18.4 mph 24.2 mph N/A   Clear
11:35 PM 17.6 °F 0.5 °F 14.0 °F 86% 29.65 in 10.0 mi NW 21.9 mph 25.3 mph N/A   Clear
11:55 PM 15.8 °F -0.2 °F 14.0 °F 93% 29.66 in 10.0 mi NNW 17.3 mph 23.0 mph N/A   Scattered Clouds